World > North America > United States > New York > Burke  

Burke, NY Hourly Weather Updates

Feedback E-mail the Weather

Quick Clicks

Burke, NY Weather Maps

°F °C°F °C
Burke Weather Map
UTC Time: 5/24/2024, 15:48
Your Time:

Burke, NY Regional Weather

Expires:202405241600;;787635
ASUS41 KBTV 241530
RWRBTV
VERMONT REGIONAL WEATHER ROUNDUP
NATIONAL WEATHER SERVICE BURLINGTON VT
1100 AM EDT FRI MAY 24 2024

NOTE: "FAIR" INDICATES FEW OR NO CLOUDS BELOW 12,000 FEET WITH NO 
SIGNIFICANT WEATHER AND/OR OBSTRUCTIONS TO VISIBILITY.

* THESE REPORTS ARE NOT UNDER NWS QUALITY CONTROL AND/OR DO NOT
  REPORT WEATHER SUCH AS PRECIPITATION AND FOG.


NYZ007-026>031-035-052-083-087-241600-
_____NORTHERN NEW YORK_
  
CITY           SKY/WX    TMP DP  RH WIND       PRES   REMARKS
PLATTSBURGH    MOSUNNY   73  43  33 W18G38    29.70R TC  23           
SARANAC LAKE   MOSUNNY   66  41  40 W12G37    29.75S TC  19           
MASSENA        SUNNY     64  44  48 NW14G26   29.79R TC  18           
OGDENSBURG*    SUNNY     68  45  42 W12       29.77R TC  20           
POTSDAM*       SUNNY     66  46  48 NW13G20   29.78S TC  19           
WATERTOWN      SUNNY     67  50  54 SW14G28   29.81S TC  19           
FT DRUM        SUNNY     68  48  48 W16G26    29.77S TC  20           
ALBANY         MOSUNNY   77  49  37 NW7       29.82F TC  25           
GLENS FALLS    SUNNY     74  53  48 SW12G39   29.77F TC  23           

$$

SKY/WX - Weather  TMP - Temperature  DP - Dew Point  RH - Humidity
WIND - Wind Direction/Speed PRES - Barometric Pressure VSB - Visibility
WCI - Wind Chill Index E13G22 Wind - East Wind 13 mph/Gusts of 22 mph

Trending Headlines

Trending Entertainment Headlines

Burke Radar Loop

Use the map search tool if you want to place a location marker on the radar map...

Burke Quick Facts

National Two Day Weather Forecast


E-mail the Burke Weather Forecast

Voice your opinion or tell us about page issues...